User: anonymous   Login
Location: Gu�tanj
(46.5431°N, 14.9692°E)
Time: 02:28:41
(UTC+00:00)
Language:

Cosmos 2218 Rocket - Orbit

View from above orbital plane
View from above orbital plane
View from above satellite
View from above satellite

Ground track
Ground track

The orbit data is extracted from the following two-line orbital elements,

1 22208U 92073B   22277.39133865  .00000064  00000-0  51119-4 0  9994
2 22208  82.9226  23.9610 0035105  42.3798  22.8222 13.75190388501710
Epoch (UTC): 04 October 2022 09:23:31
Eccentricity: 0.0035105
inclination: 82.9226°
perigee height: 955 km
apogee height: 1007 km
right ascension of ascending node: 23.9610°
argument of perigee: 42.3798°
revolutions per day: 13.75190388
mean anomaly at epoch: 22.8222°
orbit number at epoch: 50171

The dashed part of the orbit path shows where the satellite is in the earth's shadow,  

DLR